#timestamp,LO_Frequency,Hit,StdDev 
1703350815.7,286046996.9,N
1703350835.5,286046999.6,N
1703350855.3,286047011.9,Y
1703350875.2,286046999.4,P
1703350895.0,286046998.6,P
1703350895.9,286046998.6,P
1703350915.8,286046998.3,Y
1703350935.6,286046998.2,P
1703350955.4,286046999.0,P
1703350975.3,286047001.2,P
1703350995.1,286047000.0,N
1703351015.9,286047000.5,N
1703351035.7,286047000.1,N
1703351055.5,286047000.3,N
1703351075.4,286047000.8,N
1703351095.2,286047001.1,N
1703351115.0,286047000.5,N
1703351115.9,286047000.5,N
1703351135.8,286047002.7,N
1703351155.6,286047002.3,N
1703351175.4,286047000.7,N
1703351195.3,286047001.1,N
1703351215.1,286047001.0,N
1703351235.9,286047000.8,N
1703351255.7,286046998.8,N
1703351275.5,286046998.1,N
1703351295.4,286046999.2,N
1703351315.2,286046999.4,N
1703351335.1,286046998.8,N
1703351336.0,286046998.8,N
1703351355.8,286046998.4,N
1703351375.6,286047000.1,N
1703351395.5,286047000.0,N
1703351415.3,286047002.5,N
1703351435.1,286047002.0,N
1703351455.9,286047001.5,N
1703351475.7,286047001.9,N
1703351495.6,286047000.2,N
1703351515.4,286047001.9,N
1703351535.2,286047001.9,N
1703351555.1,286047002.5,N
1703351556.0,286047002.5,N
1703351575.8,286047002.3,N
1703351595.6,286047002.7,N
1703351615.5,286047000.9,N
1703351635.3,286046999.7,N
1703351655.2,286047002.5,N
1703351675.9,286047002.8,N
1703351695.7,286046999.7,N
1703351715.6,286047000.0,N
1703351735.4,286047002.4,N
1703351755.2,286047001.6,N
1703351775.1,286047002.1,N
1703351776.0,286047002.1,N
1703351795.8,286047001.5,N
1703351815.7,286047004.1,N
1703351835.5,286047003.9,N
1703351855.3,286047002.2,N
1703351875.2,286047002.0,N
1703351895.0,286046999.7,N
1703351895.9,286046999.7,N
1703351915.8,286046998.4,N
1703351935.6,286046999.6,N
1703351955.4,286047000.7,N
1703351975.3,286047000.5,N
1703351995.1,286047000.9,N
1703352015.8,286046998.9,N
1703352035.7,286046998.4,N
1703352055.5,286046997.0,N
1703352075.4,286046998.9,N
1703352095.2,286046998.8,N
1703352115.1,286046999.0,N
1703352116.0,286046999.0,N
1703352135.8,286046998.9,N
1703352155.6,286047000.7,N
1703352175.5,286047000.7,N
1703352195.3,286047000.6,N
1703352215.2,286047002.7,N
1703352235.9,286046999.7,N
1703352255.7,286047000.1,N
1703352275.6,286046999.7,N
1703352295.4,286047001.5,N
1703352315.2,286047001.7,N
1703352335.1,286047001.7,N
1703352336.0,286047001.7,N
1703352355.8,286047001.5,N
1703352375.7,286047004.4,N
1703352395.5,286047004.4,N
1703352415.3,286047001.7,N
1703352435.2,286047001.6,N
1703352455.0,286047001.9,N
1703352455.9,286047001.9,N
1703352475.8,286047004.4,N
1703352495.6,286047004.4,N
1703352515.4,286047004.4,N
1703352535.3,286047004.4,N
1703352555.1,286047004.4,N
1703352575.8,286047001.8,N
1703352595.7,286047001.8,N
1703352615.5,286047000.4,N
1703352635.4,286046998.4,N
1703352655.2,286046999.5,N
1703352675.0,286046996.5,N
1703352675.9,286046996.5,N
1703352695.8,286046999.6,N
1703352715.6,286046998.6,N
1703352735.4,286047000.8,N
1703352755.3,286047000.4,N
1703352775.1,286046998.7,N
1703352795.9,286046998.4,N
1703352815.7,286046998.3,N
1703352835.6,286046999.0,N
1703352855.4,286046999.6,N
1703352875.2,286046998.5,N
1703352895.1,286047001.2,N
1703352896.0,286047001.2,N
1703352915.8,286046999.3,N
1703352935.7,286046999.8,N
1703352955.5,286047000.4,N
1703352975.3,286047000.2,N
1703352995.2,286047001.5,N
1703353015.0,286046999.9,N
1703353015.9,286046999.9,N
1703353035.8,286046999.7,N
1703353055.6,286047000.0,N
1703353075.4,286047000.6,N
1703353095.3,286047000.3,N
1703353115.1,286046999.8,N
1703353135.8,286047001.5,N
1703353155.7,286047001.7,N
1703353175.5,286047004.2,Y
1703353195.4,286047002.6,P
1703353215.2,286047000.6,N
1703353235.0,286047000.4,N
1703353235.9,286047000.4,N
1703353255.8,286047001.2,N
1703353275.6,286047000.4,N
1703353295.5,286047000.4,N
1703353315.3,286047000.0,N
1703353335.1,286047002.6,Y
1703353355.9,286047001.9,P
1703353375.7,286047002.5,P
1703353395.6,286047007.0,P
1703353415.4,286047007.7,Y
1703353435.2,286047011.9,P
1703353455.1,286047009.5,N
1703353456.0,286047009.5,N
1703353475.8,286047007.6,N
1703353495.7,286047003.0,N
1703353515.5,286047006.0,N
1703353535.3,286047005.7,N
1703353555.2,286047003.3,N
1703353575.0,286047003.1,N
1703353575.9,286047003.1,N
1703353595.8,286047001.3,N
1703353615.6,286047001.7,N
1703353635.4,286047002.5,N
1703353655.3,286046999.7,N
1703353675.1,286047001.0,N
1703353695.9,286046998.8,N
1703353715.7,286046998.2,N
1703353735.5,286046998.4,N
1703353755.4,286046996.6,N
1703353775.2,286046997.1,N
1703353795.0,286046996.8,N
1703353795.9,286046996.8,N
1703353815.8,286046997.0,N
1703353835.6,286046996.9,N
1703353855.5,286046997.1,N
1703353875.3,286046997.1,N
1703353895.1,286046997.2,N
1703353915.9,286046997.6,N
1703353935.7,286046995.4,N
1703353955.5,286046995.5,N
1703353975.4,286046996.0,N
1703353995.2,286046993.5,N
1703354015.1,286046995.6,N
1703354016.0,286046995.6,N
1703354035.8,286046995.0,N
1703354055.6,286046997.4,N
1703354075.5,286046997.5,N
1703354095.3,286046997.5,N
1703354115.1,286046999.4,N
1703354135.9,286046999.5,N
1703354155.7,286046999.6,N
1703354175.6,286046999.6,N
1703354195.4,286046996.5,N
1703354215.2,286046997.8,N
1703354235.1,286046997.8,N
1703354236.0,286046997.8,N
1703354255.8,286046997.8,N
1703354275.6,286046998.0,N
1703354295.5,286046997.4,N
1703354315.3,286046995.1,Y
1703354335.2,286047000.6,P
1703354355.9,286047001.1,N
1703354375.7,286047000.1,N
1703354395.6,286047002.8,N
